Radiation Dose at Monitoring Post of Fukushima Daini Nuclear Power Station
Date,Time,MP-1(microSv/h),MP-2(microSv/h),MP-3(microSv/h),MP-4(microSv/h),MP-5(microSv/h),MP-6(microSv/h),MP-7(microSv/h),Wind Direction,Wind Velocity(m/s),Rain
2015/10/13,00:00,0.509,0.290,0.530,0.484,0.456,0.237,0.206,south,0.7,No
2015/10/13,00:10,0.503,0.288,0.526,0.481,0.458,0.236,0.205,west-northwest,1.4,No
2015/10/13,00:20,0.509,0.292,0.531,0.484,0.457,0.236,0.207,northwest,0.7,No
2015/10/13,00:30,0.503,0.288,0.526,0.481,0.459,0.236,0.207,-,CALM,No
2015/10/13,00:40,0.508,0.291,0.531,0.485,0.454,0.235,0.207,west,0.7,No
2015/10/13,00:50,0.503,0.289,0.525,0.484,0.459,0.236,0.207,south-southwest,0.7,No
2015/10/13,01:00,0.508,0.291,0.530,0.484,0.454,0.236,0.207,west-southwest,0.5,No
2015/10/13,01:10,0.504,0.288,0.524,0.482,0.460,0.236,0.206,west,1.9,No
2015/10/13,01:20,0.507,0.290,0.530,0.483,0.456,0.236,0.208,west-northwest,2.4,No
2015/10/13,01:30,0.504,0.290,0.526,0.482,0.459,0.237,0.206,west-northwest,2.2,No
2015/10/13,01:40,0.508,0.289,0.531,0.484,0.456,0.236,0.206,west-northwest,1.6,No
2015/10/13,01:50,0.504,0.291,0.528,0.483,0.460,0.236,0.206,west-northwest,1.3,No
2015/10/13,02:00,0.509,0.290,0.531,0.485,0.456,0.236,0.205,-,CALM,No
2015/10/13,02:10,0.504,0.291,0.527,0.482,0.458,0.235,0.206,-,CALM,No
2015/10/13,02:20,0.509,0.291,0.532,0.485,0.457,0.236,0.207,west-southwest,0.7,No
2015/10/13,02:30,0.505,0.290,0.527,0.482,0.458,0.236,0.207,west,3.0,No
2015/10/13,02:40,0.509,0.290,0.531,0.486,0.458,0.237,0.206,west-northwest,3.2,No
2015/10/13,02:50,0.506,0.290,0.525,0.483,0.458,0.236,0.206,west,4.5,No
2015/10/13,03:00,0.509,0.289,0.531,0.486,0.457,0.236,0.206,west,3.3,No
2015/10/13,03:10,0.505,0.289,0.526,0.479,0.459,0.236,0.206,west,1.0,No
2015/10/13,03:20,0.508,0.290,0.530,0.486,0.457,0.235,0.205,north,0.8,No
2015/10/13,03:30,0.503,0.289,0.526,0.481,0.457,0.237,0.206,north-northeast,0.9,No
2015/10/13,03:40,0.509,0.292,0.530,0.486,0.459,0.236,0.206,-,CALM,No
2015/10/13,03:50,0.505,0.288,0.526,0.483,0.456,0.237,0.207,west-southwest,0.7,No
2015/10/13,04:00,0.507,0.290,0.532,0.486,0.460,0.236,0.206,-,CALM,No
2015/10/13,04:10,0.505,0.288,0.526,0.483,0.455,0.235,0.206,-,CALM,No
2015/10/13,04:20,0.508,0.289,0.532,0.486,0.461,0.236,0.206,-,CALM,No
2015/10/13,04:30,0.504,0.290,0.527,0.481,0.455,0.235,0.206,west-northwest,1.6,No
2015/10/13,04:40,0.505,0.289,0.531,0.484,0.461,0.236,0.206,west-northwest,2.0,No
2015/10/13,04:50,0.507,0.290,0.525,0.483,0.454,0.236,0.206,west-southwest,1.0,No
2015/10/13,05:00,0.506,0.289,0.531,0.484,0.460,0.236,0.205,northwest,0.8,No
2015/10/13,05:10,0.507,0.291,0.527,0.484,0.456,0.236,0.206,-,CALM,No
2015/10/13,05:20,0.504,0.289,0.530,0.483,0.457,0.236,0.207,north-northeast,1.9,No
2015/10/13,05:30,0.509,0.289,0.527,0.484,0.456,0.236,0.205,north-northwest,1.1,No
2015/10/13,05:40,0.503,0.289,0.530,0.481,0.456,0.237,0.206,north-northwest,1.2,No
2015/10/13,05:50,0.507,0.289,0.525,0.486,0.459,0.237,0.206,west-southwest,0.8,No
2015/10/13,06:00,0.503,0.290,0.531,0.483,0.456,0.235,0.205,west-northwest,1.7,No
2015/10/13,06:10,0.508,0.288,0.528,0.484,0.456,0.236,0.206,west,2.4,No
2015/10/13,06:20,0.503,0.291,0.531,0.482,0.455,0.235,0.205,west-northwest,1.5,No
2015/10/13,06:30,0.509,0.288,0.527,0.485,0.460,0.236,0.206,west-northwest,2.1,No
2015/10/13,06:40,0.503,0.290,0.529,0.481,0.455,0.236,0.206,west,2.5,No
2015/10/13,06:50,0.508,0.289,0.526,0.486,0.458,0.236,0.207,west-northwest,3.3,No
2015/10/13,07:00,0.502,0.290,0.531,0.481,0.455,0.237,0.205,west,2.5,No
2015/10/13,07:10,0.505,0.289,0.525,0.484,0.455,0.235,0.206,west,3.1,No
2015/10/13,07:20,0.503,0.289,0.532,0.482,0.457,0.235,0.207,west,3.4,No
2015/10/13,07:30,0.507,0.288,0.524,0.481,0.455,0.235,0.204,west,3.6,No
2015/10/13,07:40,0.503,0.289,0.528,0.482,0.457,0.235,0.207,west,4.8,No
2015/10/13,07:50,0.509,0.288,0.525,0.480,0.453,0.236,0.207,west,3.5,No
2015/10/13,08:00,0.503,0.290,0.529,0.484,0.459,0.238,0.204,southwest,3.5,No
2015/10/13,08:10,0.506,0.288,0.527,0.480,0.455,0.237,0.207,south-southwest,1.6,No
2015/10/13,08:20,0.507,0.290,0.529,0.484,0.458,0.237,0.207,south-southwest,2.8,No
2015/10/13,08:30,0.506,0.289,0.529,0.484,0.459,0.236,0.206,south-southwest,2.2,No
2015/10/13,08:40,0.508,0.288,0.529,0.482,0.454,0.237,0.204,south-southwest,2.2,No
2015/10/13,08:50,0.503,0.285,0.530,0.487,0.460,0.236,0.204,south-southwest,1.9,No
2015/10/13,09:00,0.509,0.290,0.526,0.482,0.455,0.236,0.206,south,2.8,No
2015/10/13,09:10,0.505,0.290,0.532,0.479,0.453,0.236,0.207,south,3.1,No
2015/10/13,09:20,0.501,0.289,0.526,0.476,0.458,0.236,0.206,south,2.9,No
2015/10/13,09:30,0.497,0.287,0.528,0.484,0.455,0.235,0.204,south,3.1,No
2015/10/13,09:40,0.506,0.289,0.531,0.484,0.451,0.237,0.207,south-southeast,3.5,No
2015/10/13,09:50,0.506,0.289,0.526,0.480,0.458,0.236,0.208,south-southeast,4.2,No
2015/10/13,10:00,0.504,0.290,0.528,0.477,0.458,0.236,0.206,south,2.8,No
2015/10/13,10:10,0.502,0.289,0.530,0.478,0.456,0.236,0.205,south-southeast,1.8,No
2015/10/13,10:20,0.499,0.287,0.524,0.488,0.452,0.237,0.204,south-southeast,1.9,No
2015/10/13,10:30,0.509,0.290,0.531,0.484,0.461,0.236,0.207,south-southeast,1.6,No
2015/10/13,10:40,0.506,0.291,0.527,0.484,0.457,0.237,0.206,east-northeast,1.4,No
2015/10/13,10:50,0.505,0.290,0.529,0.490,0.456,0.236,0.208,east-southeast,1.0,No
2015/10/13,11:00,0.511,0.292,0.531,0.485,0.462,0.236,0.207,east,0.7,No
2015/10/13,11:10,0.508,0.290,0.525,0.481,0.458,0.236,0.207,east-southeast,1.4,No
2015/10/13,11:20,0.501,0.288,0.526,0.488,0.454,0.238,0.206,east-southeast,1.6,No
2015/10/13,11:30,0.508,0.291,0.530,0.486,0.460,0.236,0.207,east-southeast,2.5,No
2015/10/13,11:40,0.507,0.290,0.527,0.482,0.461,0.236,0.207,southeast,1.6,No
2015/10/13,11:50,0.503,0.288,0.523,0.478,0.456,0.236,0.206,southeast,2.7,No
2015/10/13,12:00,0.499,0.290,0.526,0.484,0.453,0.238,0.205,southeast,3.0,No
2015/10/13,12:10,0.507,0.293,0.529,0.487,0.459,0.237,0.207,east-southeast,2.5,No
2015/10/13,12:20,0.506,0.289,0.527,0.483,0.458,0.237,0.207,east-southeast,2.5,No
2015/10/13,12:30,0.502,0.288,0.522,0.480,0.456,0.237,0.206,southeast,2.1,No
2015/10/13,12:40,0.507,0.292,0.534,0.489,0.455,0.235,0.207,southeast,1.9,No
2015/10/13,12:50,0.510,0.290,0.529,0.484,0.462,0.236,0.208,east-southeast,0.8,No
2015/10/13,13:00,0.504,0.290,0.527,0.483,0.458,0.238,0.206,-,CALM,No
2015/10/13,13:10,0.509,0.292,0.534,0.488,0.459,0.236,0.208,north,1.0,No
2015/10/13,13:20,0.509,0.290,0.528,0.484,0.460,0.237,0.207,north,3.2,No
2015/10/13,13:30,0.504,0.290,0.526,0.480,0.454,0.237,0.207,west-northwest,4.6,No
2015/10/13,13:40,0.508,0.292,0.532,0.484,0.456,0.236,0.206,west-northwest,5.2,No
2015/10/13,13:50,0.507,0.289,0.529,0.485,0.461,0.236,0.207,west,5.5,No
2015/10/13,14:00,0.503,0.287,0.524,0.480,0.458,0.237,0.205,west-northwest,2.8,No
2015/10/13,14:10,0.509,0.288,0.524,0.483,0.455,0.236,0.206,west-northwest,2.8,No
2015/10/13,14:20,0.507,0.289,0.525,0.488,0.453,0.237,0.207,west-northwest,4.5,No
2015/10/13,14:30,0.501,0.290,0.532,0.482,0.452,0.236,0.206,west-southwest,3.3,No
2015/10/13,14:40,0.510,0.288,0.529,0.483,0.462,0.237,0.207,northwest,4.0,No
2015/10/13,14:50,0.508,0.288,0.528,0.489,0.459,0.237,0.206,west,3.2,No
2015/10/13,15:00,0.504,0.292,0.533,0.484,0.457,0.237,0.205,west,4.1,No
2015/10/13,15:10,0.507,0.291,0.528,0.486,0.460,0.238,0.208,west-northwest,3.6,No
2015/10/13,15:20,0.506,0.293,0.534,0.488,0.459,0.238,0.207,west-northwest,4.8,No
2015/10/13,15:30,0.507,0.291,0.533,0.482,0.457,0.236,0.205,west-northwest,6.6,No
2015/10/13,15:40,0.507,0.290,0.527,0.488,0.462,0.238,0.207,west,10.5,No
2015/10/13,15:50,0.505,0.291,0.532,0.485,0.456,0.237,0.206,west-northwest,14.3,No
2015/10/13,16:00,0.512,0.289,0.529,0.486,0.462,0.238,0.207,northwest,6.9,No
2015/10/13,16:10,0.506,0.292,0.534,0.486,0.459,0.237,0.206,west-northwest,9.2,No
2015/10/13,16:20,0.511,0.289,0.533,0.486,0.460,0.237,0.207,northwest,7.8,No
2015/10/13,16:30,0.510,0.291,0.531,0.486,0.459,0.238,0.206,northwest,6.0,No
2015/10/13,16:40,0.508,0.290,0.535,0.484,0.458,0.237,0.207,northwest,6.1,No
2015/10/13,16:50,0.510,0.292,0.529,0.489,0.461,0.239,0.207,northwest,8.2,No
2015/10/13,17:00,0.507,0.289,0.533,0.485,0.458,0.238,0.208,northwest,8.8,No
2015/10/13,17:10,0.511,0.292,0.529,0.489,0.462,0.239,0.207,northwest,10.1,No
2015/10/13,17:20,0.507,0.290,0.533,0.484,0.458,0.238,0.207,northwest,8.9,No
2015/10/13,17:30,0.510,0.291,0.529,0.487,0.463,0.237,0.207,northwest,9.1,No
2015/10/13,17:40,0.507,0.290,0.533,0.483,0.459,0.237,0.207,northwest,11.5,No
2015/10/13,17:50,0.510,0.292,0.529,0.488,0.461,0.239,0.206,northwest,10.6,No
2015/10/13,18:00,0.508,0.291,0.534,0.485,0.458,0.237,0.209,west-northwest,8.3,No
2015/10/13,18:10,0.511,0.292,0.529,0.490,0.461,0.238,0.207,northwest,6.6,No
2015/10/13,18:20,0.506,0.290,0.533,0.484,0.460,0.237,0.207,west-northwest,5.9,No
2015/10/13,18:30,0.510,0.293,0.531,0.488,0.460,0.239,0.208,west,4.6,No
2015/10/13,18:40,0.507,0.290,0.532,0.484,0.458,0.236,0.208,west,3.2,No
2015/10/13,18:50,0.510,0.291,0.532,0.487,0.457,0.237,0.207,west-northwest,3.3,No
2015/10/13,19:00,0.508,0.291,0.530,0.485,0.458,0.237,0.206,west-northwest,4.9,No
2015/10/13,19:10,0.508,0.291,0.531,0.491,0.459,0.236,0.206,west-northwest,3.7,No
2015/10/13,19:20,0.510,0.291,0.529,0.483,0.459,0.237,0.207,west-northwest,5.3,No
2015/10/13,19:30,0.508,0.291,0.531,0.489,0.460,0.237,0.208,west,6.2,No
2015/10/13,19:40,0.509,0.291,0.531,0.484,0.459,0.237,0.206,west,6.5,No
2015/10/13,19:50,0.508,0.292,0.533,0.489,0.458,0.237,0.207,west,5.3,No
2015/10/13,20:00,0.508,0.291,0.529,0.485,0.460,0.237,0.208,west-southwest,7.4,No
2015/10/13,20:10,0.508,0.291,0.532,0.489,0.459,0.237,0.208,west,8.2,No
2015/10/13,20:20,0.508,0.290,0.529,0.485,0.461,0.237,0.208,west-northwest,6.9,No
2015/10/13,20:30,0.508,0.291,0.532,0.488,0.455,0.238,0.206,west-northwest,10.5,No
2015/10/13,20:40,0.509,0.290,0.530,0.485,0.460,0.237,0.206,west-northwest,7.6,No
2015/10/13,20:50,0.507,0.290,0.535,0.487,0.456,0.238,0.208,west-northwest,7.1,No
2015/10/13,21:00,0.511,0.291,0.527,0.485,0.460,0.237,0.206,west-northwest,6.8,No
2015/10/13,21:10,0.507,0.289,0.533,0.487,0.457,0.236,0.208,west-northwest,7.4,No
2015/10/13,21:20,0.508,0.291,0.529,0.485,0.459,0.238,0.206,west-northwest,8.1,No
2015/10/13,21:30,0.507,0.290,0.534,0.488,0.457,0.237,0.208,west-northwest,8.7,No
2015/10/13,21:40,0.509,0.292,0.530,0.484,0.459,0.237,0.207,west-northwest,5.3,No
2015/10/13,21:50,0.509,0.290,0.533,0.486,0.459,0.236,0.207,west,4.2,No
2015/10/13,22:00,0.509,0.293,0.530,0.484,0.458,0.238,0.207,west,2.7,No
2015/10/13,22:10,0.507,0.289,0.532,0.486,0.460,0.237,0.208,west,3.1,No
2015/10/13,22:20,0.508,0.290,0.530,0.486,0.457,0.236,0.207,west,3.9,No
2015/10/13,22:30,0.510,0.290,0.531,0.486,0.461,0.238,0.208,west-southwest,5.7,No
2015/10/13,22:40,0.506,0.290,0.532,0.487,0.454,0.235,0.207,west-southwest,6.2,No
2015/10/13,22:50,0.509,0.292,0.530,0.484,0.461,0.238,0.208,west-southwest,5.5,No
2015/10/13,23:00,0.508,0.289,0.530,0.487,0.458,0.237,0.208,west-southwest,5.4,No
2015/10/13,23:10,0.509,0.291,0.530,0.485,0.459,0.237,0.207,west-southwest,4.3,No
2015/10/13,23:20,0.506,0.291,0.534,0.488,0.455,0.237,0.208,southwest,3.7,No
2015/10/13,23:30,0.510,0.289,0.529,0.484,0.457,0.236,0.207,southwest,3.2,No
2015/10/13,23:40,0.508,0.291,0.533,0.487,0.458,0.237,0.207,southwest,4.4,No
2015/10/13,23:50,0.509,0.289,0.530,0.486,0.458,0.237,0.207,west-southwest,4.5,No
